EHI
0 0 0 0 0 0 0 0 0 0 0 0 0 0 0 0 0 0 0 0 0 0 0 0 0 0 0 0 0 0 0 0 0 0 0 0 0 1 0 0 0 0 0
0 0 0 0 0 0 0 0 0 0 0 0 0 0 0 0 0 0 0 0 0 0 0 0 0 0 0 0 0 0 0 0 0 0 0 0 0 1 0 0 0 0 0
0 0 0 0 0 0 0 0 0 0 0 0 0 0 0 0 0 0 0 0 0 0 0 0 0 0 0 0 0 0 0 0 0 0 0 0 0 0 0 0 0 0 0
0 0 0 0 0 0 0 0 0 0 0 0 0 0 0 0 0 0 0 0 0 0 0 0 0 0 0 0 0 0 0 0 0 0 0 0 0 0 0 0 0 0 0
0 0 0 0 0 0 0 0 0 0 0 0 0 0 0 0 0 0 0 0 0 0 0 0 0 0 0 0 0 0 0 0 0 0 0 0 0 0 0 0 0 0 0
0 0 0 0 0 0 0 0 0 0 0 0 0 0 0 0 0 0 0 0 0 0 0 0 0 0 0 0 0 0 0 0 0 0 0 0 0 0 0 0 0 0 0
0 0 0 0 0 0 0 0 0 0 0 0 0 0 0 0 0 0 0 0 0 0 0 0 0 0 0 0 0 0 0 0 0 0 0 0 0 0 0 0 0 0 0
0 0 0 0 0 0 0 0 0 0 0 0 0 0 0 0 0 0 0 0 0 0 0 0 0 0 0 0 0 0 0 0 0 0 0 0 0 0 0 0 0 0 0
0 0 0 0 0 0 0 0 0 0 0 0 0 0 0 0 0 0 0 0 0 0 0 0 0 0 0 0 0 0 0 0 0 0 0 0 0 0 0 0 0 0 0
0 0 0 0 0 0 0 0 0 0 0 0 0 0 0 0 0 0 0 0 0 0 0 0 0 0 0 0 0 0 0 0 0 0 0 0 0 0 0 0 0 0 0
0 0 0 0 0 0 0 0 0 0 0 0 0 0 0 0 0 0 0 0 0 0 0 0 0 0 0 0 0 0 0 0 0 0 0 0 0 0 0 0 0 0 0
0 0 0 0 0 0 0 0 0 0 0 0 0 0 0 0 0 0 0 0 0 0 0 0 0 0 0 0 0 0 0 0 0 0 0 0 0 0 0 0 0 0 0
0 0 0 0 0 0 0 0 0 0 0 0 0 0 0 0 0 0 0 0 0 0 0 0 0 0 0 0 0 0 0 0 0 0 0 0 0 0 0 0 0 0 0
0 0 0 0 0 0 0 0 0 0 0 0 0 0 0 0 0 0 0 0 0 0 0 0 0 0 0 0 0 0 0 0 0 0 0 0 0 0 0 0 0 0 0
0 0 0 0 0 0 0 0 0 0 0 0 0 0 0 0 0 0 0 0 0 0 0 0 0 0 0 0 0 0 0 0 0 0 0 0 0 0 0 0 0 0 0
0 0 0 0 0 0 0 0 0 0 0 0 0 0 0 0 0 0 0 0 0 0 0 0 0 0 0 0 0 0 0 0 0 0 0 0 0 0 0 0 0 0 0
0 0 0 0 0 0 0 0 0 0 0 0 0 0 0 0 0 0 0 0 0 0 0 0 0 0 0 0 0 0 0 0 0 0 0 0 0 0 0 0 0 0 0
0 0 0 0 0 0 0 0 0 0 0 0 0 0 0 0 0 0 0 0 0 0 0 0 0 0 0 0 0 0 0 0 0 0 0 0 0 0 0 0 0 0 0
0 0 0 0 0 0 0 0 0 0 0 0 0 0 0 0 0 0 0 0 0 0 0 0 0 0 0 0 0 0 0 0 0 0 0 0 0 0 0 0 0 0 0
0 0 0 0 0 0 0 0 0 0 0 0 0 0 0 0 0 0 0 0 0 0 0 0 0 0 0 0 0 0 0 0 0 0 0 0 0 0 0 0 0 0 0
0 0 0 0 0 0 0 0 0 0 0 0 0 0 0 0 0 0 0 0 0 0 0 0 0 0 0 0 0 0 0 0 0 0 0 0 0 0 0 0 0 0 0
0 0 0 0 0 0 0 0 0 0 0 0 0 0 0 0 0 0 0 0 0 0 0 0 0 0 0 0 0 0 0 0 0 0 0 0 0 0 0 0 0 0 0
0 0 0 0 0 0 0 0 0 0 0 0 0 0 0 0 0 0 0 0 0 0 0 0 0 0 0 0 0 0 0 0 0 0 0 0 0 0 0 0 0 0 0
0 0 0 0 0 0 0 0 0 0 0 0 0 0 0 0 0 0 0 0 0 0 0 0 0 0 0 0 0 0 0 0 0 0 0 0 0 0 0 0 0 0 0
0 0 0 0 0 0 0 0 0 0 0 0 0 0 0 0 0 0 0 0 0 0 0 0 0 0 0 0 0 0 0 0 0 0 0 0 0 0 0 0 0 0 0
0 0 0 0 0 0 0 0 0 0 0 0 0 0 0 0 0 0 0 0 0 0 0 0 0 0 0 0 0 0 0 0 0 0 0 0 0 0 0 0 0 0 0
Wind_Speed
2 2 2 2 3 2 2 3 3 4 4 4 3 2 1 1 1 1 1 3 3 4 4 5 5 5 7 8 8 8 8 8 8 8 8 8 9 10 10 10 10 10 11
2 2 2 3 3 2 2 2 3 3 3 3 4 3 2 1 0 1 1 1 3 3 3 4 5 6 6 8 8 8 8 9 9 8 8 8 9 9 10 10 10 10 10
2 2 2 3 3 3 3 3 3 3 3 3 4 4 2 1 1 0 1 1 1 3 3 4 5 5 6 7 8 8 9 8 9 9 9 8 8 9 9 10 10 10 10
2 2 2 2 3 3 3 3 3 3 3 3 3 3 2 2 1 1 0 1 1 1 2 3 4 5 6 7 8 8 9 9 8 9 9 9 8 8 8 9 9 9 9
2 2 2 2 3 3 3 3 3 2 3 4 3 2 2 2 2 2 1 1 1 1 1 2 3 4 5 6 7 8 9 9 9 9 9 9 9 8 8 8 9 9 9
2 2 2 3 3 2 3 3 3 3 2 2 3 3 2 2 2 1 1 1 1 0 1 1 1 2 4 5 6 7 8 9 9 9 9 9 9 9 9 9 9 9 9
2 2 2 2 2 2 2 3 2 3 3 2 3 3 4 3 3 2 2 1 1 1 1 1 1 1 1 3 5 6 8 9 9 10 10 10 10 9 9 9 10 10 10
1 1 1 1 1 2 3 3 2 2 2 3 2 2 4 5 4 3 2 1 1 1 1 0 0 1 1 1 2 4 5 7 9 9 10 10 10 10 10 10 10 10 10
1 1 1 1 1 1 1 2 2 2 2 2 1 2 2 1 3 4 3 2 2 1 1 1 0 1 1 1 1 3 5 6 7 9 10 10 10 10 10 10 11 11 10
1 1 1 0 0 1 1 2 1 0 1 1 2 1 1 2 1 2 4 3 2 2 1 0 0 0 1 1 2 3 4 5 6 7 10 11 11 11 11 10 11 10 10
2 2 1 0 1 1 1 1 1 1 0 1 0 1 1 1 1 1 2 3 3 2 2 1 0 0 1 1 1 2 4 5 6 6 8 9 11 11 12 11 11 11 11
2 3 1 1 1 1 1 1 1 0 0 0 0 0 1 0 1 1 1 2 2 2 2 1 0 1 1 1 2 3 3 4 4 5 6 6 8 10 10 11 12 12 12
2 3 2 2 2 2 2 1 1 1 1 0 1 1 1 1 2 2 1 1 1 2 2 2 1 1 1 1 1 2 3 4 4 4 5 5 6 6 8 10 11 11 12
2 3 3 2 3 2 2 1 1 1 1 1 1 1 1 2 1 2 2 2 0 2 2 2 2 1 1 1 2 3 2 4 4 4 5 5 5 5 6 7 8 9 9
2 3 3 3 3 2 2 2 1 2 1 1 1 1 1 2 1 1 1 2 3 1 2 2 2 1 1 1 2 2 2 4 5 4 4 4 5 5 5 5 5 5 5
4 4 4 3 3 3 2 1 1 2 2 2 2 2 2 2 1 1 1 1 2 3 2 2 2 2 1 2 2 2 2 4 5 5 5 4 4 5 5 5 5 5 5
4 4 4 4 3 3 3 1 2 2 2 3 2 2 3 3 2 1 1 1 1 2 3 3 2 2 1 2 1 1 2 2 2 5 5 6 5 5 5 5 5 5 5
4 3 3 4 4 3 3 2 3 3 2 3 3 2 3 3 2 2 1 2 2 2 3 3 2 1 2 2 2 2 2 2 2 4 5 6 6 6 6 6 6 6 6
3 3 3 4 4 4 3 2 2 3 3 3 3 3 4 2 3 2 2 2 2 2 2 3 3 2 1 1 1 1 1 1 2 2 4 5 5 6 6 6 6 6 6
2 3 3 3 4 4 3 3 3 3 3 3 3 3 3 3 4 3 3 3 2 2 2 2 2 2 2 1 1 2 1 1 1 1 1 2 3 5 6 6 6 7 6
3 3 3 3 4 3 3 4 4 4 4 4 4 4 4 5 5 4 3 3 3 2 2 2 2 2 2 2 2 2 3 2 1 1 1 2 2 2 3 5 6 7 7
3 3 3 3 4 5 8 8 5 3 3 4 5 5 5 6 6 6 6 5 5 4 4 4 3 4 4 4 3 3 3 2 2 2 2 2 2 2 3 3 5 7 7
3 3 4 3 4 6 9 9 8 4 3 4 4 4 5 5 5 3 5 6 5 7 7 5 5 6 6 5 4 4 4 4 4 3 2 2 2 3 3 3 6 7 7
3 3 4 4 4 6 10 10 9 4 3 4 4 4 4 5 5 4 4 4 4 5 6 6 6 7 6 5 5 6 5 3 2 1 3 3 2 2 2 2 5 7 7
3 3 4 4 4 7 10 10 8 3 3 5 5 5 4 5 8 7 4 5 6 6 6 7 8 8 9 8 6 3 3 3 3 3 2 3 2 2 1 2 3 5 6
3 4 4 4 4 5 9 11 9 2 4 5 5 5 7 7 10 9 4 5 7 7 5 5 5 6 6 7 8 6 6 5 3 3 3 4 3 3 1 1 1 2 2
Wind_Direction
38 25 7 7 356 353 354 348 347 345 341 338 340 342 325 290 244 191 256 228 216 207 198 190 183 182 179 173 166 160 155 150 143 138 134 130 128 124 121 117 114 113 111
57 42 19 9 0 353 350 352 351 351 336 338 340 341 331 311 255 189 216 253 241 221 208 197 193 189 182 179 173 170 166 161 155 149 146 140 134 132 130 127 124 121 118
65 56 31 8 348 349 360 6 3 3 1 358 349 343 347 341 326 219 214 235 264 243 222 206 201 194 184 182 179 174 171 166 162 157 154 148 142 140 138 137 132 130 128
62 56 33 0 348 2 6 4 8 1 357 356 345 342 353 348 353 323 264 236 249 254 242 216 201 194 189 189 185 178 174 171 169 166 161 156 152 149 145 143 141 140 138
48 58 32 350 359 12 6 0 11 4 353 347 336 348 358 357 345 3 357 301 265 239 233 231 211 192 190 195 192 186 181 177 176 175 170 166 162 158 155 153 151 148 145
46 50 30 7 13 18 5 4 0 359 349 339 348 1 356 352 360 357 344 344 1 11 184 212 218 210 194 197 198 193 186 183 183 182 180 175 171 169 167 166 163 160 157
43 47 25 12 17 25 359 358 4 3 354 358 24 359 352 1 15 1 353 3 2 5 81 147 173 177 196 204 204 197 193 189 188 188 187 184 180 176 176 176 174 172 169
20 43 41 13 9 21 6 3 17 12 354 18 54 41 2 352 351 357 354 358 353 6 30 68 126 156 176 174 202 199 194 193 194 195 195 192 188 185 183 182 182 180 179
341 22 34 38 17 50 358 342 9 46 3 352 46 107 95 311 319 334 344 351 356 4 355 27 66 176 173 171 183 206 200 197 204 205 203 200 195 193 190 189 188 188 186
331 358 9 31 8 23 346 324 19 58 83 355 347 24 168 182 173 329 329 338 342 345 335 357 58 212 172 166 184 196 202 206 211 212 209 204 199 198 197 195 194 193 192
332 336 338 353 324 326 320 334 350 16 115 146 323 332 15 39 142 158 302 326 338 328 322 310 211 216 188 183 200 203 202 206 214 216 215 210 205 203 204 202 200 200 199
327 328 325 322 303 300 298 296 312 321 275 180 204 164 158 182 233 184 228 284 303 306 317 317 274 202 211 210 221 204 201 207 214 218 215 210 208 204 204 206 206 207 207
321 314 325 301 292 288 292 306 336 312 283 247 243 241 221 220 208 182 182 247 294 308 323 320 280 225 206 200 229 217 216 213 214 216 207 200 202 204 208 208 209 209 208
298 313 321 311 308 312 315 319 309 291 291 262 275 261 258 265 230 194 183 176 314 328 323 292 306 260 219 210 233 219 229 217 208 211 205 200 202 205 211 210 208 208 205
328 337 340 332 329 327 325 341 317 302 306 278 274 280 273 275 266 232 193 174 171 228 286 281 282 274 237 218 231 214 225 223 205 203 205 202 200 198 206 207 199 195 197
348 346 342 341 336 330 324 346 331 317 327 299 282 291 285 276 279 268 219 196 180 182 234 264 257 264 245 222 219 214 226 223 214 202 201 200 198 199 201 199 191 189 189
350 347 340 341 341 337 329 332 318 331 333 320 315 298 282 279 279 277 251 216 201 180 218 266 262 270 244 226 231 222 218 215 214 209 203 202 202 205 201 195 189 186 184
347 343 347 351 345 339 333 333 319 319 310 306 299 299 294 298 281 268 251 246 233 210 200 244 271 267 247 224 209 211 210 206 211 215 206 206 204 203 201 196 190 185 183
351 354 358 347 338 336 330 316 307 302 294 288 287 280 279 287 285 273 258 252 249 236 205 214 251 254 258 236 201 214 200 214 215 210 208 209 203 198 198 195 190 188 186
340 342 341 335 332 328 329 330 323 311 302 295 283 272 273 258 254 262 260 256 250 238 222 215 239 252 253 247 178 201 223 228 230 217 214 203 198 200 198 197 193 190 189
326 323 334 332 327 324 327 329 320 321 315 307 299 285 276 275 268 259 259 245 231 226 223 221 233 246 247 220 213 207 207 215 240 213 204 218 197 200 203 203 201 195 192
313 322 320 316 319 325 327 324 327 319 317 311 305 299 291 283 287 288 280 265 231 218 221 221 226 226 235 226 219 205 195 193 235 218 184 217 186 205 213 205 203 195 191
306 309 306 307 303 302 317 326 327 326 308 301 296 297 302 306 303 290 293 291 266 246 223 212 223 227 226 220 205 208 206 200 216 206 166 212 198 208 222 211 199 195 194
292 288 292 295 298 304 318 320 320 319 301 295 288 277 278 288 295 294 286 288 278 267 250 235 227 233 229 220 209 210 207 204 228 214 168 194 201 204 204 212 207 196 194
295 287 288 292 294 299 311 315 318 300 294 297 287 280 277 275 288 293 279 272 280 281 271 255 244 247 246 231 208 185 183 182 216 227 194 178 187 181 189 216 215 202 195
285 294 299 296 291 290 306 315 316 291 293 299 295 283 282 282 292 289 266 257 263 268 276 276 267 265 253 239 216 202 196 193 193 215 201 173 174 155 180 242 194 181 182